Date String (YYYY-MM-DD hh:mm:ss) UTC,Instrument flags,absolute air pressure of the measurement (hPa),sample flow rate (lpm),inlet stack bypass flow (lpm),air temperature of the measurement (°C),ambient temperature measured by the external sensor (°C),aerosol sample conditioner tube jacket temperature (°C),OPC LED temperature (°C),internal box temperature (°C),relative humidity of the measurement (%),span deviation,mass concentration of particles derived from Lorenz-Mie calculation of OPC scattering (μg/m³),mass concentration of particles derived from Lorenz-Mie calculation of OPC scattering (μg/m³),mass concentration of particles derived from Lorenz-Mie calculation of OPC scattering (μg/m³)
DateTimeUTC,F1_M11,P_M11,Q1_M11,Q2_M11,T1_M11,T2_M11,T3_M11,T4_M11,T5_M11,U1_M11,ZSPAN_M11,X0_M11,X2_M11,X1_M11
2023-09-07 20:00:00,SystemResetWarning,0832.0,5.00,000.00,027.7,026.5,000.0,035.9,029.5,10.8,0000.0,0008.55,0002.10,0001.21
2023-09-07 20:01:00,SystemResetWarning,0831.9,4.99,000.00,027.7,025.6,000.0,035.9,029.2,10.8,0000.0,0008.53,0002.02,0001.15
2023-09-07 20:02:00,SystemResetWarning,0831.8,5.00,000.00,027.6,024.5,000.0,035.8,028.9,10.4,0000.0,0008.13,0001.89,0001.09
2023-09-07 20:03:00,SystemResetWarning,0831.7,5.01,000.00,027.6,024.6,000.0,035.8,029.0,10.6,0000.0,0007.03,0001.76,0001.02
2023-09-07 20:04:00,SystemResetWarning,0832.1,5.01,000.00,027.6,024.9,000.0,035.8,029.0,10.9,0000.0,0004.81,0001.57,0000.95
2023-09-07 20:05:00,SystemResetWarning,0831.9,4.99,000.00,027.6,025.3,000.0,035.8,029.1,10.9,0000.0,0003.16,0001.44,0000.91
2023-09-07 20:06:00,SystemResetWarning,0831.8,5.00,000.00,027.6,025.7,000.0,035.8,029.2,10.7,0000.0,0003.55,0001.45,0000.89
2023-09-07 20:07:00,SystemResetWarning,0832.1,5.00,000.00,027.6,026.1,000.0,035.8,029.3,10.8,0000.0,0003.82,0001.43,0000.89
2023-09-07 20:08:00,SystemResetWarning,0831.8,4.99,000.00,027.7,026.4,000.0,035.9,029.5,10.1,0000.0,0004.46,0001.39,0000.88
2023-09-07 20:09:00,SystemResetWarning,0832.0,4.99,000.00,027.7,026.2,000.0,035.9,029.4,10.3,0000.0,0004.60,0001.44,0000.88
2023-09-07 20:10:00,SystemResetWarning,0832.0,4.99,000.00,027.7,024.9,000.0,035.8,029.0,10.9,0000.0,0004.49,0001.44,0000.88
2023-09-07 20:11:00,SystemResetWarning,0831.9,5.01,000.00,027.6,024.5,000.0,035.8,028.9,11.1,0000.0,0004.96,0001.47,0000.87
2023-09-07 20:12:00,SystemResetWarning,0831.9,5.01,000.00,027.6,024.8,000.0,035.8,029.0,11.2,0000.0,0005.16,0001.52,0000.88
2023-09-07 20:13:00,SystemResetWarning,0831.8,5.00,000.00,027.5,025.2,000.0,035.8,029.0,11.5,0000.0,0006.15,0001.55,0000.88
2023-09-07 20:14:00,SystemResetWarning,0831.7,5.00,000.00,027.6,025.6,000.0,035.8,029.2,11.3,0000.0,0006.95,0001.54,0000.89
2023-09-07 20:15:00,SystemResetWarning,0831.6,5.00,000.00,027.6,026.0,000.0,035.8,029.3,11.2,0000.0,0007.04,0001.52,0000.89
2023-09-07 20:16:00,SystemResetWarning,0831.7,5.00,000.00,027.7,026.3,000.0,035.8,029.4,10.9,0000.0,0007.44,0001.51,0000.87
2023-09-07 20:17:00,SystemResetWarning,0831.6,5.00,000.00,027.7,026.1,000.0,035.8,029.3,10.7,0000.0,0007.15,0001.50,0000.87
2023-09-07 20:18:00,SystemResetWarning,0831.6,4.98,000.00,027.6,024.8,000.0,035.8,028.9,10.4,0000.0,0006.87,0001.50,0000.86
2023-09-07 20:19:00,SystemResetWarning,0831.6,5.01,000.00,027.5,024.4,000.0,035.8,028.8,10.6,0000.0,0006.27,0001.48,0000.87
2023-09-07 20:20:00,SystemResetWarning,0831.6,5.01,000.00,027.5,024.7,000.0,035.8,028.9,11.0,0000.0,0006.52,0001.46,0000.87
2023-09-07 20:21:00,SystemResetWarning,0831.6,4.99,000.00,027.5,025.1,000.0,035.8,029.0,11.5,0000.0,0006.67,0001.48,0000.86
2023-09-07 20:22:00,SystemResetWarning,0831.7,4.99,000.00,027.5,025.5,000.0,035.8,029.1,11.0,0000.0,0006.31,0001.51,0000.88
2023-09-07 20:23:00,SystemResetWarning,0831.7,5.01,000.00,027.6,025.9,000.0,035.8,029.3,10.6,0000.0,0006.96,0001.51,0000.89
2023-09-07 20:24:00,SystemResetWarning,0831.7,4.99,000.00,027.6,026.3,000.0,035.8,029.4,10.5,0000.0,0005.66,0001.44,0000.89
2023-09-07 20:25:00,SystemResetWarning,0831.6,4.99,000.00,027.7,026.1,000.0,035.8,029.3,10.2,0000.0,0005.12,0001.48,0000.89
2023-09-07 20:26:00,SystemResetWarning,0831.6,5.00,000.00,027.6,024.7,000.0,035.8,028.8,10.7,0000.0,0005.06,0001.49,0000.90
2023-09-07 20:27:00,SystemResetWarning,0831.6,5.00,000.00,027.5,024.3,000.0,035.7,028.8,10.9,0000.0,0004.39,0001.51,0000.90
2023-09-07 20:28:00,SystemResetWarning,0831.6,5.01,000.00,027.5,024.6,000.0,035.7,028.8,10.7,0000.0,0004.43,0001.54,0000.89
2023-09-07 20:29:00,SystemResetWarning,0831.6,5.01,000.00,027.5,025.0,000.0,035.7,028.9,10.8,0000.0,0004.53,0001.57,0000.89
2023-09-07 20:30:00,SystemResetWarning,0831.6,5.00,000.00,027.5,025.4,000.0,035.7,029.0,10.8,0000.0,0004.38,0001.54,0000.88
2023-09-07 20:31:00,SystemResetWarning,0831.5,5.00,000.00,027.5,025.8,000.0,035.7,029.2,11.2,0000.0,0004.02,0001.53,0000.88
2023-09-07 20:32:00,SystemResetWarning,0831.5,5.00,000.00,027.6,026.2,000.0,035.8,029.3,10.8,0000.0,0003.90,0001.50,0000.88
2023-09-07 20:33:00,SystemResetWarning,0831.5,4.99,000.00,027.6,026.5,000.0,035.8,029.4,10.5,0000.0,0003.74,0001.42,0000.88
2023-09-07 20:34:00,SystemResetWarning,0831.5,4.99,000.00,027.6,025.5,000.0,035.8,029.1,10.6,0000.0,0002.83,0001.38,0000.85
2023-09-07 20:35:00,SystemResetWarning,0831.4,5.00,000.00,027.5,024.4,000.0,035.7,028.7,11.0,0000.0,0002.76,0001.41,0000.84
2023-09-07 20:36:00,SystemResetWarning,0831.5,5.00,000.00,027.5,024.5,000.0,035.7,028.8,11.2,0000.0,0002.54,0001.34,0000.83
2023-09-07 20:37:00,SystemResetWarning,0831.5,5.01,000.00,027.5,024.9,000.0,035.7,028.9,11.2,0000.0,0002.44,0001.30,0000.81
2023-09-07 20:38:00,SystemResetWarning,0831.5,5.00,000.00,027.5,025.3,000.0,035.7,029.0,11.3,0000.0,0002.36,0001.26,0000.81
2023-09-07 20:39:00,SystemResetWarning,0831.5,4.99,000.00,027.5,025.7,000.0,035.7,029.2,10.8,0000.0,0002.45,0001.23,0000.81
2023-09-07 20:40:00,SystemResetWarning,0831.5,5.00,000.00,027.6,026.1,000.0,035.8,029.3,10.7,0000.0,0002.44,0001.22,0000.81
2023-09-07 20:41:00,SystemResetWarning,0831.4,5.00,000.00,027.6,026.4,000.0,035.8,029.4,10.5,0000.0,0002.87,0001.30,0000.82
2023-09-07 20:42:00,SystemResetWarning,0831.5,4.99,000.00,027.7,026.3,000.0,035.8,029.4,10.6,0000.0,0003.09,0001.35,0000.82
2023-09-07 20:43:00,SystemResetWarning,0831.5,5.00,000.00,027.6,024.9,000.0,035.7,028.9,10.7,0000.0,0003.22,0001.38,0000.82
2023-09-07 20:44:00,SystemResetWarning,0831.4,5.01,000.00,027.5,024.4,000.0,035.7,028.8,11.1,0000.0,0003.61,0001.40,0000.81
2023-09-07 20:45:00,SystemResetWarning,0831.5,5.01,000.00,027.5,024.7,000.0,035.7,028.9,10.7,0000.0,0004.18,0001.39,0000.82
2023-09-07 20:46:00,SystemResetWarning,0831.4,4.98,000.00,027.5,025.0,000.0,035.7,029.0,11.1,0000.0,0004.05,0001.35,0000.82
2023-09-07 20:47:00,SystemResetWarning,0831.3,5.00,000.00,027.5,025.5,000.0,035.7,029.1,11.3,0000.0,0004.31,0001.39,0000.83
2023-09-07 20:48:00,SystemResetWarning,0831.3,5.00,000.00,027.6,025.9,000.0,035.7,029.2,11.2,0000.0,0004.60,0001.45,0000.84
2023-09-07 20:49:00,SystemResetWarning,0831.3,5.01,000.00,027.6,026.3,000.0,035.8,029.4,11.4,0000.0,0004.72,0001.48,0000.83
2023-09-07 20:50:00,SystemResetWarning,0831.4,5.00,000.00,027.7,026.6,000.0,035.8,029.4,11.0,0000.0,0004.71,0001.51,0000.84
2023-09-07 20:51:00,SystemResetWarning,0831.4,4.98,000.00,027.7,025.7,000.0,035.8,029.2,9.8,0000.0,0004.98,0001.54,0000.85
2023-09-07 20:52:00,SystemResetWarning,0831.2,5.01,000.00,027.6,024.5,000.0,035.7,028.8,10.3,0000.0,0004.64,0001.48,0000.85
2023-09-07 20:53:00,SystemResetWarning,0831.3,5.01,000.00,027.5,024.5,000.0,035.7,028.9,10.3,0000.0,0004.57,0001.43,0000.84
2023-09-07 20:54:00,SystemResetWarning,0831.3,5.00,000.00,027.5,024.8,000.0,035.7,028.9,10.1,0000.0,0004.34,0001.38,0000.82
2023-09-07 20:55:00,SystemResetWarning,0831.4,4.99,000.00,027.5,025.2,000.0,035.7,029.0,10.1,0000.0,0004.73,0001.38,0000.82
2023-09-07 20:56:00,SystemResetWarning,0831.3,5.01,000.00,027.5,025.6,000.0,035.7,029.2,10.4,0000.0,0004.04,0001.37,0000.81
2023-09-07 20:57:00,SystemResetWarning,0831.3,5.00,000.00,027.6,026.0,000.0,035.8,029.3,10.6,0000.0,0004.33,0001.43,0000.81
2023-09-07 20:58:00,SystemResetWarning,0831.3,5.00,000.00,027.7,026.4,000.0,035.8,029.4,11.0,0000.0,0004.33,0001.43,0000.80
2023-09-07 20:59:00,SystemResetWarning,0831.3,4.99,000.00,027.7,026.3,000.0,035.8,029.4,11.2,0000.0,0004.05,0001.38,0000.80
